When you browse on this site, cookies collect data to enhance your experience and personalize the content and advertising you see.
Visit our Privacy Policy to learn more. By continuing to use the site, you agree to this use of cookies and data.
  • In Hungary
  • List of Countries
  • For 7 days
  • Water Temperature
  • Weather Map
  • News
  • Weather Widgets
  • user-avatar
    Login

    Hourly Weather Nabq

    Today, 13 December, Friday

    Time Temperature Precipitation Wind Pressure Humidity
    00:00 +16°C° 0 mm 3 mps 759 mmHg 43%
    01:00 +14°C° 0 mm 3 mps 759 mmHg 42%
    02:00 +14°C° 0 mm 4 mps 758 mmHg 40%
    03:00 +14°C° 0 mm 3 mps 759 mmHg 43%
    04:00 +13°C° 0 mm 3 mps 759 mmHg 45%
    05:00 +13°C° 0 mm 3 mps 760 mmHg 47%
    06:00 +14°C° 0 mm 4 mps 760 mmHg 43%
    07:00 +17°C° 0 mm 4 mps 760 mmHg 38%
    08:00 +19°C° 0 mm 3 mps 760 mmHg 31%
    09:00 +20°C° 0 mm 3 mps 760 mmHg 33%
    10:00 +21°C° 0 mm 4 mps 760 mmHg 35%
    11:00 +22°C° 0 mm 4 mps 760 mmHg 36%
    12:00 +22°C° 0 mm 3 mps 760 mmHg 36%
    13:00 +22°C° 0 mm 3 mps 759 mmHg 35%
    14:00 +24°C° 0 mm 2 mps 759 mmHg 34%
    15:00 +21°C° 0 mm 2 mps 759 mmHg 41%
    16:00 +20°C° 0 mm 1 mps 759 mmHg 49%
    17:00 +18°C° 0 mm 1 mps 760 mmHg 56%
    18:00 +18°C° 0 mm 1 mps 760 mmHg 57%
    19:00 +16°C° 0 mm 2 mps 760 mmHg 57%
    20:00 +16°C° 0 mm 2 mps 760 mmHg 58%
    21:00 +16°C° 0 mm 2 mps 761 mmHg 59%
    22:00 +15°C° 0 mm 2 mps 761 mmHg 61%
    23:00 +15°C° 0 mm 2 mps 761 mmHg 63%

    Tomorrow, 14 December, Saturday

    Time Temperature Precipitation Wind Pressure Humidity
    00:00 +14°C° 0 mm 2 mps 761 mmHg 65%
    01:00 +14°C° 0 mm 2 mps 760 mmHg 67%
    02:00 +13°C° 0 mm 2 mps 760 mmHg 69%
    03:00 +13°C° 0 mm 2 mps 760 mmHg 69%
    04:00 +13°C° 0 mm 2 mps 760 mmHg 68%
    05:00 +13°C° 0 mm 2 mps 760 mmHg 68%
    06:00 +15°C° 0 mm 2 mps 761 mmHg 60%
    07:00 +17°C° 0 mm 2 mps 761 mmHg 52%
    08:00 +18°C° 0 mm 2 mps 761 mmHg 44%
    09:00 +20°C° 0 mm 2 mps 761 mmHg 40%
    10:00 +21°C° 0 mm 2 mps 761 mmHg 36%
    11:00 +23°C° 0 mm 2 mps 761 mmHg 32%
    12:00 +23°C° 0 mm 2 mps 761 mmHg 33%
    13:00 +23°C° 0 mm 2 mps 760 mmHg 34%
    14:00 +23°C° 0 mm 2 mps 759 mmHg 34%
    15:00 +21°C° 0 mm 2 mps 760 mmHg 39%
    16:00 +19°C° 0 mm 2 mps 760 mmHg 44%
    17:00 +18°C° 0 mm 1 mps 760 mmHg 48%
    18:00 +16°C° 0 mm 2 mps 760 mmHg 47%
    19:00 +15°C° 0 mm 2 mps 761 mmHg 46%
    20:00 +15°C° 0 mm 2 mps 761 mmHg 45%
    21:00 +15°C° 0 mm 2 mps 761 mmHg 46%
    22:00 +14°C° 0 mm 2 mps 761 mmHg 46%
    23:00 +14°C° 0 mm 2 mps 761 mmHg 47%

    Day after tomorrow, 15 December, Sunday

    Time Temperature Precipitation Wind Pressure Humidity
    00:00 +14°C° 0 mm 2 mps 761 mmHg 47%
    01:00 +14°C° 0 mm 2 mps 761 mmHg 47%
    02:00 +14°C° 0 mm 2 mps 760 mmHg 47%
    03:00 +14°C° 0 mm 2 mps 760 mmHg 49%
    04:00 +13°C° 0 mm 2 mps 760 mmHg 51%
    05:00 +13°C° 0 mm 2 mps 760 mmHg 53%
    06:00 +15°C° 0 mm 2 mps 760 mmHg 47%
    07:00 +17°C° 0 mm 2 mps 760 mmHg 41%
    08:00 +19°C° 0 mm 2 mps 760 mmHg 35%
    09:00 +20°C° 0 mm 3 mps 760 mmHg 30%
    10:00 +21°C° 0 mm 3 mps 760 mmHg 26%
    11:00 +23°C° 0 mm 4 mps 759 mmHg 22%
    12:00 +23°C° 0 mm 5 mps 759 mmHg 23%
    13:00 +23°C° 0 mm 6 mps 758 mmHg 24%
    14:00 +23°C° 0 mm 7 mps 758 mmHg 25%
    15:00 +21°C° 0 mm 6 mps 758 mmHg 33%
    16:00 +19°C° 0 mm 6 mps 758 mmHg 42%
    17:00 +17°C° 0 mm 5 mps 759 mmHg 51%
    18:00 +16°C° 0 mm 5 mps 759 mmHg 54%
    19:00 +15°C° 0 mm 4 mps 760 mmHg 57%
    20:00 +14°C° 0 mm 3 mps 760 mmHg 60%
    21:00 +13°C° 0 mm 4 mps 761 mmHg 63%
    22:00 +13°C° 0 mm 4 mps 761 mmHg 66%
    23:00 +13°C° 0 mm 4 mps 761 mmHg 69%

    16 December, Monday

    Time Temperature Precipitation Wind Pressure Humidity
    00:00 +13°C° 0 mm 5 mps 761 mmHg 67%
    01:00 +12°C° 0 mm 5 mps 761 mmHg 66%
    02:00 +12°C° 0 mm 5 mps 761 mmHg 64%
    03:00 +12°C° 0 mm 5 mps 761 mmHg 64%
    04:00 +12°C° 0 mm 5 mps 761 mmHg 63%
    05:00 +11°C° 0 mm 6 mps 761 mmHg 62%
    06:00 +13°C° 0 mm 6 mps 761 mmHg 56%
    07:00 +15°C° 0 mm 6 mps 762 mmHg 50%
    08:00 +16°C° 0 mm 6 mps 762 mmHg 44%
    09:00 +18°C° 0 mm 7 mps 762 mmHg 40%
    10:00 +20°C° 0 mm 8 mps 762 mmHg 36%
    11:00 +22°C° 0 mm 9 mps 762 mmHg 32%
    12:00 +22°C° 0 mm 9 mps 762 mmHg 31%
    13:00 +23°C° 0 mm 9 mps 761 mmHg 30%
    14:00 +23°C° 0 mm 8 mps 761 mmHg 29%
    15:00 +22°C° 0 mm 8 mps 761 mmHg 32%
    16:00 +20°C° 0 mm 8 mps 761 mmHg 35%
    17:00 +18°C° 0 mm 8 mps 761 mmHg 38%
    18:00 +17°C° 0 mm 8 mps 762 mmHg 38%
    19:00 +17°C° 0 mm 8 mps 762 mmHg 39%
    20:00 +16°C° 0 mm 8 mps 763 mmHg 40%
    21:00 +16°C° 0 mm 8 mps 763 mmHg 41%
    22:00 +16°C° 0 mm 8 mps 763 mmHg 42%
    23:00 +16°C° 0 mm 7 mps 763 mmHg 42%

    17 December, Tuesday

    Time Temperature Precipitation Wind Pressure Humidity
    00:00 +15°C° 0 mm 7 mps 763 mmHg 44%
    01:00 +15°C° 0 mm 7 mps 763 mmHg 45%
    02:00 +15°C° 0 mm 7 mps 763 mmHg 46%
    03:00 +14°C° 0 mm 7 mps 763 mmHg 48%
    04:00 +14°C° 0 mm 7 mps 763 mmHg 50%
    05:00 +14°C° 0 mm 7 mps 763 mmHg 52%
    06:00 +15°C° 0 mm 6 mps 764 mmHg 48%
    07:00 +16°C° 0 mm 6 mps 764 mmHg 43%
    08:00 +17°C° 0 mm 6 mps 765 mmHg 39%
    09:00 +20°C° 0 mm 6 mps 764 mmHg 34%
    10:00 +21°C° 0 mm 7 mps 764 mmHg 30%
    11:00 +22°C° 0 mm 7 mps 764 mmHg 25%
    12:00 +23°C° 0 mm 7 mps 764 mmHg 26%
    13:00 +23°C° 0 mm 7 mps 763 mmHg 27%
    14:00 +23°C° 0 mm 7 mps 763 mmHg 28%
    15:00 +22°C° 0 mm 7 mps 763 mmHg 35%
    16:00 +20°C° 0 mm 7 mps 763 mmHg 41%
    17:00 +17°C° 0 mm 7 mps 763 mmHg 48%
    18:00 +17°C° 0 mm 7 mps 764 mmHg 52%
    19:00 +16°C° 0 mm 6 mps 764 mmHg 56%
    20:00 +15°C° 0 mm 6 mps 765 mmHg 60%
    21:00 +15°C° 0 mm 6 mps 765 mmHg 59%
    22:00 +15°C° 0 mm 6 mps 765 mmHg 57%
    23:00 +15°C° 0 mm 6 mps 765 mmHg 56%

    18 December, Wednesday

    Time Temperature Precipitation Wind Pressure Humidity
    00:00 +15°C° 0 mm 6 mps 765 mmHg 55%
    01:00 +14°C° 0 mm 6 mps 765 mmHg 54%
    02:00 +14°C° 0 mm 6 mps 765 mmHg 53%
    03:00 +14°C° 0 mm 6 mps 765 mmHg 53%
    04:00 +13°C° 0 mm 6 mps 765 mmHg 52%
    05:00 +13°C° 0 mm 6 mps 765 mmHg 51%
    06:00 +15°C° 0 mm 6 mps 766 mmHg 46%
    07:00 +16°C° 0 mm 6 mps 766 mmHg 40%
    08:00 +19°C° 0 mm 6 mps 766 mmHg 34%
    09:00 +20°C° 0 mm 6 mps 766 mmHg 32%
    10:00 +21°C° 0 mm 6 mps 766 mmHg 30%
    11:00 +23°C° 0 mm 6 mps 766 mmHg 28%
    12:00 +23°C° 0 mm 6 mps 765 mmHg 27%
    13:00 +23°C° 0 mm 5 mps 765 mmHg 27%
    14:00 +25°C° 0 mm 4 mps 765 mmHg 27%
    15:00 +21°C° 0 mm 4 mps 765 mmHg 32%
    16:00 +19°C° 0 mm 4 mps 765 mmHg 38%
    17:00 +17°C° 0 mm 4 mps 765 mmHg 43%
    18:00 +17°C° 0 mm 4 mps 765 mmHg 41%
    19:00 +17°C° 0 mm 4 mps 765 mmHg 39%
    20:00 +17°C° 0 mm 4 mps 766 mmHg 37%
    21:00 +17°C° 0 mm 4 mps 766 mmHg 37%
    22:00 +16°C° 0 mm 5 mps 766 mmHg 37%
    23:00 +16°C° 0 mm 5 mps 766 mmHg 37%
    Show more